Location: Milton Keynes
(52.0316°N, 0.7531°W)
Time: 02:50:31
(UTC+00:00)

Envisat - Visible Passes

Search period start: 27 November 2022 00:00
Search period end: 07 December 2022 00:00
Orbit: 763 x 765 km, 98.2° (Epoch: 26 November)

Date Brightness Start Highest point End Pass type
(mag) Time Alt. Az. Time Alt. Az. Time Alt. Az.
27 Nov 5.5 03:06:14 10° NE 03:08:38 17° ENE 03:08:38 17° ENE visible
27 Nov 2.9 04:44:13 10° NNE 04:48:48 70° NNW 04:48:48 70° NNW visible
27 Nov 4.5 06:24:32 10° NNW 06:27:33 16° NW 06:28:59 14° WNW visible
28 Nov 3.9 04:07:15 10° NNE 04:11:09 45° ENE 04:11:09 45° ENE visible
28 Nov 3.8 05:46:45 10° N 05:51:01 28° WNW 05:51:20 27° WNW visible
28 Nov 6.2 17:10:58 10° W 17:12:22 11° W 17:13:45 10° WNW visible
29 Nov 5.0 03:30:39 10° NNE 03:33:31 24° ENE 03:33:31 24° ENE visible
29 Nov 3.2 05:09:22 10° N 05:13:41 47° NW 05:13:41 47° NW visible
29 Nov 4.8 06:50:54 10° NNW 06:52:11 11° NW 06:53:28 10° WNW visible
29 Nov 5.7 16:30:55 10° SW 16:34:49 22° W 16:38:46 10° NW visible
30 Nov 5.8 02:54:47 10° NE 02:55:54 13° ENE 02:55:54 13° ENE visible
30 Nov 3.5 04:32:15 10° NNE 04:36:04 52° NNE 04:36:04 52° NNE visible
30 Nov 4.3 06:12:16 10° NNW 06:15:46 19° NW 06:16:14 19° WNW visible
01 Dec 4.5 03:55:23 10° NNE 03:58:27 32° NE 03:58:27 32° NE visible
01 Dec 3.7 05:34:39 10° N 05:38:36 32° NW 05:38:36 32° NW visible
01 Dec 5.9 16:57:37 10° WSW 17:00:13 14° W 17:02:49 10° NW visible
02 Dec 5.4 03:18:55 10° NE 03:20:50 18° ENE 03:20:50 18° ENE visible
02 Dec 3.5 04:57:21 10° N 05:01:00 44° NNW 05:01:00 44° NNW visible
02 Dec 4.6 06:38:10 10° NNW 06:40:25 13° NW 06:41:10 13° WNW visible
03 Dec 4.1 04:20:18 10° NNE 04:23:24 37° NNE 04:23:24 37° NNE visible
03 Dec 4.1 06:00:04 10° N 06:03:34 22° NW 06:03:34 22° NW visible
04 Dec 5.0 03:43:32 10° NNE 03:45:48 23° NE 03:45:48 23° NE visible
04 Dec 3.8 05:22:34 10° N 05:25:58 33° NNW 05:25:58 33° NNW visible
04 Dec 5.8 16:44:46 10° SW 16:48:05 17° W 16:51:26 10° NW visible
05 Dec 5.8 03:07:18 10° NE 03:08:13 13° NE 03:08:13 13° NE visible
05 Dec 3.9 04:45:21 10° NNE 04:48:23 36° N 04:48:23 36° N visible
05 Dec 4.5 06:25:45 10° NNW 06:28:33 16° NW 06:28:33 16° NW visible
06 Dec 4.6 04:08:23 10° NNE 04:10:48 27° NNE 04:10:48 27° NNE visible
06 Dec 4.1 05:47:55 10° N 05:50:58 24° NW 05:50:58 24° NW visible
06 Dec 6.2 17:12:33 10° W 17:13:32 10° W 17:14:31 10° WNW visible
